Weather History for Ann Arbor, MI

Change the Weather History Date:

Thursday, October 24, 2013

  Actual Average Record
Temperature  
Mean Temperature 38 °F -  
Max Temperature 48 °F 56 °F 77 °F (2012)
Min Temperature 30 °F 35 °F 28 °F (2003)
Degree Days  
Heating Degree Days 27    
Moisture  
Dew Point 30 °F    
Average Humidity 77    
Maximum Humidity 93    
Minimum Humidity 44    
Precipitation  
Precipitation 0.00 in - - ()
Sea Level Pressure  
Sea Level Pressure 30.04 in    
Wind  
Wind Speed 8 mph (WNW)    
Max Wind Speed 14 mph    
Max Gust Speed 17 mph    
Visibility 10 miles    
Events      
Averages and records for this station are not official NWS values.
T = Trace of Precipitation, MM = Missing Value Source: NWS Daily Summary

Daily Weather History Graph

Daily Weather History Graph

Search for Another Location

Airport:

Trip Planner

Search our weather history database for the weather conditions in past years. The results will help you decide how hot, cold, wet, or windy it might be!

Date:

Astronomy

Oct. 24, 2013 Rise Set
Actual Time 7:58 AM EDT 6:39 PM EDT
Civil Twilight 7:29 AM EDT 7:07 PM EDT
Nautical Twilight 6:57 AM EDT 7:40 PM EDT
Astronomical Twilight 6:24 AM EDT 8:12 PM EDT
Moon 11:00 PM EDT (10/24) 1:01 PM EDT (10/24)
Length of Visible Light 11h 37m
Length of Day
10h 40m
Waning Gibbous, 71% of the Moon is Illuminated
Oct 24
Waning Gibbous
Oct 26
Last Quarter
Nov 3
New
Nov 10
First Quarter
Nov 17
Full

Hourly Weather History & Observations

Time (EDT) Temp. Windchill Dew Point Humidity Pressure Visibility Wind Dir Wind Speed Gust Speed Precip Events Conditions
12:53 AM 33.1 °F 26.9 °F 28.9 °F 85% 29.94 in 10.0 mi West 6.9 mph - N/A   Scattered Clouds
1:53 AM 30.9 °F 24.3 °F 28.0 °F 89% 29.95 in 10.0 mi West 6.9 mph - N/A   Clear
2:53 AM 30.9 °F 24.3 °F 28.0 °F 89% 29.95 in 10.0 mi West 6.9 mph - N/A   Clear
3:53 AM 30.9 °F 23.5 °F 28.9 °F 92% 29.95 in 10.0 mi West 8.1 mph - N/A   Clear
4:53 AM 30.9 °F 24.3 °F 28.9 °F 92% 29.96 in 10.0 mi West 6.9 mph - N/A   Clear
5:53 AM 30.9 °F 25.2 °F 28.9 °F 92% 29.97 in 10.0 mi West 5.8 mph - N/A   Overcast
6:53 AM 33.1 °F 26.9 °F 30.9 °F 92% 29.98 in 10.0 mi West 6.9 mph - N/A   Overcast
7:33 AM 33.8 °F 28.6 °F 30.2 °F 87% 29.97 in 10.0 mi West 5.8 mph - N/A   Overcast
7:45 AM 33.8 °F 27.7 °F 30.2 °F 87% 29.97 in 10.0 mi West 6.9 mph - N/A   Overcast
7:53 AM 34.0 °F 28.0 °F 30.9 °F 89% 29.99 in 10.0 mi West 6.9 mph - N/A   Overcast
8:20 AM 33.8 °F 27.7 °F 32.0 °F 93% 29.98 in 9.0 mi West 6.9 mph - N/A   Overcast
8:53 AM 35.1 °F 29.3 °F 32.0 °F 89% 30.01 in 10.0 mi West 6.9 mph - N/A   Overcast
9:20 AM 35.6 °F 29.9 °F 33.8 °F 93% 30.00 in 10.0 mi WNW 6.9 mph - N/A   Overcast
9:44 AM 35.6 °F 29.2 °F 33.8 °F 93% 30.00 in 10.0 mi WNW 8.1 mph - N/A   Overcast
9:53 AM 36.0 °F 29.0 °F 33.1 °F 89% 30.03 in 10.0 mi West 9.2 mph - N/A   Overcast
10:53 AM 39.0 °F 32.3 °F 33.1 °F 79% 30.04 in 10.0 mi WNW 10.4 mph - N/A   Overcast
11:10 AM 39.2 °F 31.6 °F 32.0 °F 75% 30.02 in 10.0 mi West 12.7 mph - N/A   Overcast
11:36 AM 41.0 °F 34.3 °F 32.0 °F 70% 30.03 in 10.0 mi West 11.5 mph - N/A   Overcast
11:53 AM 42.1 °F 35.7 °F 32.0 °F 67% 30.05 in 10.0 mi West 11.5 mph - N/A   Overcast
12:09 PM 42.8 °F 36.6 °F 32.0 °F 66% 30.03 in 10.0 mi WNW 11.5 mph - N/A   Overcast
12:34 PM 44.6 °F 38.1 °F 30.2 °F 57% 30.03 in 10.0 mi WNW 13.8 mph 17.3 mph N/A   Overcast
12:41 PM 44.6 °F 38.8 °F 28.4 °F 53% 30.03 in 10.0 mi WNW 11.5 mph - N/A   Overcast
12:53 PM 44.1 °F 37.4 °F 28.9 °F 55% 30.05 in 10.0 mi WNW 13.8 mph - N/A   Overcast
1:53 PM 45.0 °F 41.8 °F 26.1 °F 48% 30.04 in 10.0 mi West 5.8 mph - N/A   Overcast
2:53 PM 46.9 °F - 26.1 °F 44% 30.04 in 10.0 mi WNW 11.5 mph - N/A   Scattered Clouds
3:53 PM 46.0 °F 41.0 °F 25.0 °F 44% 30.06 in 10.0 mi WNW 10.4 mph - N/A   Mostly Cloudy
4:53 PM 46.0 °F 41.4 °F 25.0 °F 44% 30.07 in 10.0 mi WNW 9.2 mph - N/A   Clear
5:53 PM 44.1 °F 37.4 °F 28.0 °F 53% 30.09 in 10.0 mi WNW 13.8 mph - N/A   Mostly Cloudy
6:53 PM 39.0 °F 32.8 °F 28.9 °F 67% 30.12 in 10.0 mi WNW 9.2 mph - N/A   Partly Cloudy
7:53 PM 36.0 °F 30.3 °F 30.9 °F 82% 30.15 in 10.0 mi West 6.9 mph - N/A   Mostly Cloudy
8:53 PM 35.1 °F 28.6 °F 30.9 °F 85% 30.16 in 10.0 mi West 8.1 mph - N/A   Clear
9:53 PM 34.0 °F 27.2 °F 30.0 °F 85% 30.17 in 10.0 mi West 8.1 mph - N/A   Clear
10:53 PM 33.1 °F 26.1 °F 30.0 °F 89% 30.19 in 10.0 mi West 8.1 mph - N/A   Clear
11:53 PM 32.0 °F 24.8 °F 28.9 °F 88% 30.19 in 10.0 mi West 8.1 mph - N/A   Clear